THOR ABLESTAR DEB, 246

Orbit data source: Space-Track

THOR ABLESTAR DEB, 246 is space debris in LEO originally from a launch on Thu, 29 Jun 1961 UTC launched from the Air Force Eastern Test Range (AFETR). Debris objects in space refer to the collection of defunct objects orbiting the Earth. Examples of debris include non-operational satellites, rocket bodies, and fragments generated from explosions, collisions, or faulty payload assembly.

Loading next visibility...
Identifier
246, 1961-015CB
Orbit
LEO
Country
Flag of USUS
Related business
Manufacturer
Unknown
Mission
Spacecraft
Bus & Motor
Unknown
Mass
Unknown
Launch date (UTC)
1961-06-29 (64 years ago)
Launch vehicle
Unknown
Launch site
Air Force Eastern Test Range (AFETR)
Object type
Payload
Rocket body
Debris
Shape & HBR
Unknown shape, 0.2 m
Radar Cross Section
Medium (>0.1 m² and <1 m²)

Expand to show TLE details & history
Last TLE update: 9 hours ago

TLE from 9 hours ago
0 THOR ABLESTAR DEB
1   246U 61015CB  25343.12204817  .00000052  00000-0  10800-3 0  9996
2   246  66.8697 291.0704 0072200 267.4650  91.8160 13.86128671597526
Epoch: 2025-12-09T02:55Z
TLE epoch observation values (Epoch: 2025-12-09T02:55:44.961Z)
Latitude
-0.00006°
Longitude
169.02177°
Altitude
946.362 km
Speed
7.378 km/s
True Right ascension
19h 24m 16s
True Declination
0° 00' 00"
Sunlit
Object was in daylight at epoch
Visualization orbit readout
Latitude
Unknown
Longitude
Unknown
Altitude
Unknown
Speed
Unknown
Apparent Right ascension
Unknown
Apparent Declination
Unknown
Sunlit
N/A
Visualization observer readout
Local Sidereal Time
09:47:46
Azimuth
Unknown
Elevation
Unknown
Doppler factor
Unknown
Orbital elements
Apogee altitude
993.46 km
Perigee altitude
887.777 km
Semi-major axis
7,318.755 km
Eccentricity
0.00722
Inclination
66.8697°
RAAN
291.0704°
Arg. of periapsis
267.465°
True anomaly
92.64267°
Mean anomaly
91.816°
Eccentric anomaly
92.22936°
Mean motion
3.46647 °/min
Orbital period
103.85 mins
BSTAR
0.000108
Loading maneuver chart data...
Computing Atmospheric mass density...

Documentation

Showing up to 5 results
|